K1ABC Weather Reports


Display with metric or nautical units.
time (UTC)temp
F
wind
direction
speed
MPH
gust
MPH
rain 1hr
in
rain 24hr
in
rain mn
in
humidity
%
barometer
mb
20260505012135 64 223 3.0 11.0 0.00 0.00 0.00 45 1008.1
20260505011927 64 219 3.0 7.0 0.00 0.00 0.00 45 1008.2
20260505011725 65 232 4.0 7.0 0.00 0.00 0.00 45 1008.2
20260505011359 65 168 4.0 9.0 0.00 0.00 0.00 45 1008.1
20260505011155 65 221 4.0 9.0 0.00 0.00 0.00 44 1008.0
20260505010839 65 227 4.0 9.0 0.00 0.00 0.00 43 1007.9
20260505010515 65 234 4.0 14.0 0.00 0.00 0.00 43 1007.8
20260505010310 65 193 4.0 14.0 0.00 0.00 0.00 43 1007.7
20260505005901 65 225 5.0 14.0 0.00 0.00 0.00 42 1007.7
20260505005653 66 220 5.0 14.0 0.00 0.00 0.00 43 1007.7
20260505005454 66 244 5.0 14.0 0.00 0.00 0.00 42 1007.6
20260505005246 66 254 5.0 14.0 0.00 0.00 0.00 42 1007.6
20260505005039 65 169 4.0 14.0 0.00 0.00 0.00 42 1007.5
20260505004834 65 230 4.0 14.0 0.00 0.00 0.00 41 1007.4
20260505004511 65 227 3.0 9.0 0.00 0.00 0.00 41 1007.4
20260505004301 65 221 2.0 9.0 0.00 0.00 0.00 42 1007.4
20260505004057 65 241 1.0 9.0 0.00 0.00 0.00 40 1007.3
20260505003850 65 255 0.0 7.0 0.00 0.00 0.00 40 1007.2
20260505003646 65 239 0.0 2.0 0.00 0.00 0.00 41 1007.1
20260505003439 65 239 0.0 1.0 0.00 0.00 0.00 40 1007.0
20260505003234 65 239 0.0 0.0 0.00 0.00 0.00 40 1007.0
20260505003034 65 239 0.0 0.0 0.00 0.00 0.00 40 1006.9
20260505002718 65 239 0.0 0.0 0.00 0.00 0.00 40 1006.9
20260505002403 65 239 0.0 0.0 0.00 0.00 0.00 40 1006.8
20260505002155 66 239 0.0 2.0 0.00 0.00 0.00 40 1006.8
20260505001954 66 239 0.0 2.0 0.00 0.00 0.00 40 1006.7
20260505001755 66 239 1.0 2.0 0.00 0.00 0.00 40 1006.6
20260505001546 66 239 1.0 2.0 0.00 0.00 0.00 39 1006.6
20260505001342 66 239 1.0 2.0 0.00 0.00 0.00 39 1006.6
20260505001139 66 239 1.0 2.0 0.00 0.00 0.00 39 1006.5
20260505000933 66 239 1.0 2.0 0.00 0.00 0.00 38 1006.4
20260505000618 66 239 1.0 2.0 0.00 0.00 0.00 39 1006.4
20260505000420 66 239 1.0 2.0 0.00 0.00 0.00 39 1006.5
20260505000211 66 239 0.0 2.0 0.00 0.00 0.00 39 1006.4
20260505000009 66 239 0.0 2.0 0.00 0.00 0.00 39 1006.4
20260504235805 67 239 0.0 2.0 0.00 0.00 0.00 39 1006.4
20260504235603 67 239 0.0 2.0 0.00 0.00 0.00 39 1006.3
20260504235402 67 239 0.0 2.0 0.00 0.00 0.00 38 1006.3
20260504235158 67 239 0.0 2.0 0.00 0.00 0.00 38 1006.3
20260504234954 67 239 0.0 2.0 0.00 0.00 0.00 37 1006.3
20260504234754 68 239 0.0 2.0 0.00 0.00 0.00 37 1006.3
20260504234554 68 239 0.0 1.0 0.00 0.00 0.00 36 1006.2
20260504234349 68 239 0.0 1.0 0.00 0.00 0.00 36 1006.2
20260504234033 68 239 0.0 1.0 0.00 0.00 0.00 36 1006.2
20260504233833 68 239 0.0 2.0 0.00 0.00 0.00 36 1006.1
20260504233627 68 239 0.0 2.0 0.00 0.00 0.00 36 1006.1
20260504233423 69 239 0.0 2.0 0.00 0.00 0.00 35 1006.1
20260504233218 69 239 0.0 2.0 0.00 0.00 0.00 35 1006.1
20260504233008 69 239 0.0 2.0 0.00 0.00 0.00 34 1006.0
20260504232800 69 239 0.0 3.0 0.00 0.00 0.00 34 1006.1
20260504232550 69 239 1.0 3.0 0.00 0.00 0.00 34 1006.0
20260504232341 69 239 1.0 3.0 0.00 0.00 0.00 34 1006.0
20260504232138 69 239 1.0 3.0 0.00 0.00 0.00 34 1005.9
20260504231937 70 239 1.0 3.0 0.00 0.00 0.00 34 1005.9
20260504231736 70 239 1.0 4.0 0.00 0.00 0.00 34 1005.9
20260504231421 70 239 2.0 4.0 0.00 0.00 0.00 33 1005.8
20260504231055 70 239 2.0 4.0 0.00 0.00 0.00 33 1005.8
20260504230853 70 239 2.0 4.0 0.00 0.00 0.00 33 1005.7
20260504230645 70 219 2.0 5.0 0.00 0.00 0.00 32 1005.7
20260504230442 70 223 2.0 5.0 0.00 0.00 0.00 33 1005.7
20260504230241 70 232 1.0 5.0 0.00 0.00 0.00 32 1005.7
20260504230041 70 240 1.0 5.0 0.00 0.00 0.00 32 1005.7
20260504225830 70 238 2.0 5.0 0.00 0.00 0.00 32 1005.6
20260504225623 70 224 2.0 5.0 0.00 0.00 0.00 32 1005.6
20260504225413 71 224 2.0 5.0 0.00 0.00 0.00 32 1005.6
20260504225205 71 235 2.0 5.0 0.00 0.00 0.00 32 1005.6
20260504225002 71 244 2.0 5.0 0.00 0.00 0.00 32 1005.6
20260504224756 71 242 2.0 4.0 0.00 0.00 0.00 33 1005.6
20260504224548 71 230 2.0 6.0 0.00 0.00 0.00 32 1005.5
20260504224348 71 215 2.0 6.0 0.00 0.00 0.00 32 1005.5
20260504224145 71 239 2.0 6.0 0.00 0.00 0.00 31 1005.5
20260504223826 71 249 2.0 6.0 0.00 0.00 0.00 32 1005.4
20260504223616 71 249 2.0 7.0 0.00 0.00 0.00 31 1005.4
20260504223411 71 249 3.0 7.0 0.00 0.00 0.00 32 1005.4
20260504223201 71 234 3.0 7.0 0.00 0.00 0.00 32 1005.3
20260504222959 71 306 2.0 7.0 0.00 0.00 0.00 32 1005.4
20260504222755 71 242 2.0 7.0 0.00 0.00 0.00 31 1005.4
20260504222554 71 278 2.0 8.0 0.00 0.00 0.00 32 1005.4
20260504222353 71 250 2.0 8.0 0.00 0.00 0.00 32 1005.4
20260504222029 71 236 2.0 8.0 0.00 0.00 0.00 32 1005.4
20260504221825 71 250 2.0 8.0 0.00 0.00 0.00 32 1005.3
20260504221625 71 242 3.0 8.0 0.00 0.00 0.00 31 1005.3
20260504221310 71 249 3.0 8.0 0.00 0.00 0.00 31 1005.4
20260504221101 71 207 3.0 8.0 0.00 0.00 0.00 31 1005.4
20260504220859 71 225 3.0 8.0 0.00 0.00 0.00 31 1005.4
20260504220655 71 217 2.0 6.0 0.00 0.00 0.00 31 1005.4
20260504220333 71 246 2.0 6.0 0.00 0.00 0.00 31 1005.4
20260504220008 71 150 1.0 6.0 0.00 0.00 0.00 30 1005.4
20260504215805 71 268 1.0 6.0 0.00 0.00 0.00 31 1005.3
20260504215601 71 311 1.0 10.0 0.00 0.00 0.00 32 1005.4
20260504215355 71 281 2.0 10.0 0.00 0.00 0.00 31 1005.4
20260504215152 71 259 2.0 10.0 0.00 0.00 0.00 30 1005.3
20260504214953 71 271 2.0 10.0 0.00 0.00 0.00 30 1005.2
20260504214752 72 240 2.0 10.0 0.00 0.00 0.00 29 1005.3
20260504214554 72 225 3.0 10.0 0.00 0.00 0.00 32 1005.2
20260504214352 72 261 3.0 10.0 0.00 0.00 0.00 29 1005.2
20260504214147 72 253 3.0 10.0 0.00 0.00 0.00 30 1005.2
20260504213947 72 240 4.0 10.0 0.00 0.00 0.00 31 1005.2
20260504213747 72 26 4.0 10.0 0.00 0.00 0.00 30 1005.3
20260504213542 72 253 4.0 10.0 0.00 0.00 0.00 31 1005.3
20260504213334 72 211 4.0 10.0 0.00 0.00 0.00 30 1005.2
20260504213129 72 244 5.0 10.0 0.00 0.00 0.00 29 1005.4
20260504212929 73 254 4.0 11.0 0.00 0.00 0.00 29 1005.3
20260504212723 73 242 4.0 11.0 0.00 0.00 0.00 28 1005.1
20260504212524 74 242 3.0 11.0 0.00 0.00 0.00 28 1005.3
20260504212314 74 236 3.0 11.0 0.00 0.00 0.00 28 1005.3
20260504212109 74 196 3.0 11.0 0.00 0.00 0.00 29 1005.3
20260504211910 74 263 3.0 11.0 0.00 0.00 0.00 29 1005.2
20260504211548 74 203 3.0 11.0 0.00 0.00 0.00 28 1005.4
20260504211349 74 229 3.0 11.0 0.00 0.00 0.00 29 1005.3
20260504211148 74 242 4.0 11.0 0.00 0.00 0.00 28 1005.4
20260504210948 74 190 4.0 8.0 0.00 0.00 0.00 29 1005.4
20260504210746 74 259 4.0 8.0 0.00 0.00 0.00 29 1005.4
20260504210538 74 251 3.0 10.0 0.00 0.00 0.00 29 1005.3
20260504210336 74 227 3.0 10.0 0.00 0.00 0.00 30 1005.3
20260504210136 74 217 3.0 10.0 0.00 0.00 0.00 29 1005.3
20260504205932 74 241 3.0 10.0 0.00 0.01 0.00 30 1005.3
20260504205725 73 244 4.0 10.0 0.00 0.01 0.00 28 1005.3
20260504205408 73 293 4.0 10.0 0.00 0.01 0.00 29 1005.2
20260504205209 73 261 4.0 10.0 0.00 0.01 0.00 29 1005.3
20260504205006 73 250 4.0 10.0 0.00 0.01 0.00 29 1005.3
20260504204757 73 251 3.0 10.0 0.00 0.01 0.00 30 1005.3
20260504204558 73 229 3.0 8.0 0.00 0.01 0.00 29 1005.3
20260504204243 73 231 4.0 8.0 0.00 0.01 0.00 29 1005.3
20260504204041 74 221 4.0 8.0 0.00 0.01 0.00 30 1005.3
20260504203833 74 248 3.0 8.0 0.00 0.01 0.00 27 1005.3
20260504203633 74 247 3.0 7.0 0.00 0.01 0.00 28 1005.3
20260504203428 74 229 2.0 7.0 0.00 0.01 0.00 29 1005.3
20260504203228 74 228 2.0 7.0 0.00 0.01 0.00 29 1005.2
20260504203025 74 239 2.0 14.0 0.00 0.01 0.00 29 1005.3
20260504202818 73 252 2.0 14.0 0.00 0.01 0.00 29 1005.3
20260504202610 73 235 3.0 14.0 0.00 0.01 0.00 29 1005.3
20260504202250 73 248 4.0 14.0 0.00 0.01 0.00 30 1005.3
20260504202049 73 225 4.0 14.0 0.00 0.01 0.00 28 1005.3
20260504201724 73 229 4.0 14.0 0.00 0.01 0.00 29 1005.3
20260504201519 74 218 4.0 14.0 0.00 0.01 0.00 29 1005.4
20260504201315 74 91 4.0 14.0 0.00 0.01 0.00 28 1005.4
20260504201109 75 238 3.0 9.0 0.00 0.01 0.00 29 1005.3
20260504200858 74 217 4.0 11.0 0.00 0.01 0.00 28 1005.3
20260504200651 74 246 4.0 11.0 0.00 0.01 0.00 29 1005.3
20260504200445 73 217 4.0 11.0 0.00 0.01 0.00 27 1005.3
20260504200245 74 236 5.0 11.0 0.00 0.01 0.00 27 1005.4
20260504200043 74 312 5.0 11.0 0.00 0.01 0.00 27 1005.4
20260504195834 74 227 4.0 12.0 0.00 0.01 0.00 29 1005.3
20260504195632 74 232 4.0 12.0 0.00 0.01 0.00 28 1005.4
20260504195427 74 236 4.0 12.0 0.00 0.01 0.00 28 1005.4
20260504195218 74 237 4.0 12.0 0.00 0.01 0.00 27 1005.3
20260504195010 74 221 5.0 12.0 0.00 0.01 0.00 28 1005.4
20260504194801 74 237 5.0 12.0 0.00 0.01 0.00 28 1005.4
20260504194601 74 249 5.0 12.0 0.00 0.01 0.00 27 1005.3
20260504194356 74 252 5.0 12.0 0.00 0.01 0.00 28 1005.4
20260504194154 74 227 5.0 12.0 0.00 0.01 0.00 29 1005.4
20260504193951 74 259 5.0 12.0 0.00 0.01 0.00 27 1005.4
20260504193749 74 222 5.0 10.0 0.00 0.01 0.00 27 1005.4
20260504193426 74 270 4.0 10.0 0.00 0.01 0.00 28 1005.4
20260504193222 74 241 5.0 10.0 0.00 0.01 0.00 29 1005.3
20260504192904 73 240 5.0 11.0 0.00 0.01 0.00 29 1005.4
20260504192656 73 243 6.0 11.0 0.00 0.01 0.00 30 1005.4
20260504192453 72 251 6.0 11.0 0.00 0.01 0.00 28 1005.3
20260504192249 73 253 5.0 11.0 0.00 0.01 0.00 29 1005.3
20260504192050 73 203 5.0 11.0 0.00 0.01 0.00 28 1005.4
20260504191724 72 223 4.0 11.0 0.00 0.01 0.00 28 1005.5
20260504191402 72 250 5.0 11.0 0.00 0.01 0.00 29 1005.4
20260504191155 73 225 4.0 11.0 0.00 0.01 0.00 30 1005.5
20260504190946 73 235 4.0 12.0 0.00 0.01 0.00 29 1005.4
20260504190747 72 229 4.0 12.0 0.00 0.01 0.00 30 1005.6
20260504190540 73 183 4.0 12.0 0.00 0.01 0.00 29 1005.6
20260504190336 73 231 3.0 12.0 0.00 0.01 0.00 28 1005.7
20260504190018 72 266 4.0 12.0 0.00 0.01 0.00 32 1005.7
20260504185657 72 248 4.0 12.0 0.00 0.01 0.00 29 1005.7
20260504185457 71 225 5.0 12.0 0.00 0.01 0.00 28 1005.7
20260504185252 72 228 5.0 12.0 0.00 0.01 0.00 30 1005.8
20260504185048 72 229 5.0 12.0 0.00 0.01 0.00 28 1005.7
20260504184842 72 214 6.0 12.0 0.00 0.01 0.00 28 1005.7
20260504184638 72 241 6.0 12.0 0.00 0.01 0.00 30 1005.6
20260504184439 70 208 6.0 12.0 0.00 0.01 0.00 31 1005.7
20260504183958 71 244 5.0 8.0 0.00 0.01 0.00 29 1005.8
20260504181848 73 226 4.0 16.0 0.00 0.00 0.00 27 1006.0
20260504181646 73 203 4.0 15.0 0.00 0.00 0.00 29 1005.9
20260504181440 73 217 4.0 15.0 0.00 0.00 0.00 30 1006.0
20260504181235 73 187 5.0 15.0 0.00 0.00 0.00 32 1005.9
20260504181029 72 272 6.0 15.0 0.00 0.00 0.00 29 1006.0
20260504180824 72 254 6.0 15.0 0.00 0.00 0.00 29 1006.0
20260504180619 72 251 6.0 16.0 0.00 0.00 0.00 30 1005.9
20260504180411 72 232 6.0 16.0 0.00 0.00 0.00 28 1005.9
20260504180204 72 242 6.0 16.0 0.00 0.00 0.00 29 1005.8
20260504180000 72 213 6.0 16.0 0.00 0.00 0.00 29 1005.9
20260504175758 72 236 6.0 16.0 0.00 0.00 0.00 30 1006.0
20260504175600 72 213 6.0 16.0 0.00 0.00 0.00 28 1006.0
20260504175357 72 234 6.0 16.0 0.00 0.00 0.00 28 1006.1
20260504175150 72 244 6.0 16.0 0.00 0.00 0.00 30 1006.0
20260504174943 72 224 6.0 16.0 0.00 0.00 0.00 29 1006.0
20260504174739 72 247 6.0 16.0 0.00 0.00 0.00 29 1006.1
20260504174540 72 233 5.0 14.0 0.00 0.00 0.00 28 1005.9
20260504174330 72 224 5.0 14.0 0.00 0.00 0.00 29 1006.2
20260504174016 72 241 5.0 14.0 0.00 0.00 0.00 29 1006.2
20260504173813 72 186 6.0 14.0 0.00 0.00 0.00 29 1006.1
20260504173449 72 251 6.0 14.0 0.00 0.00 0.00 31 1006.2
20260504173239 71 219 6.0 14.0 0.00 0.00 0.00 30 1006.0
20260504173032 71 244 6.0 14.0 0.00 0.00 0.00 32 1006.2
20260504172823 71 281 6.0 17.0 0.00 0.00 0.00 30 1006.1
20260504172501 71 183 6.0 17.0 0.00 0.00 0.00 30 1006.2
20260504172253 71 245 7.0 17.0 0.00 0.00 0.00 31 1006.2
20260504172047 71 229 7.0 17.0 0.00 0.00 0.00 30 1006.2
20260504171843 71 198 7.0 17.0 0.00 0.00 0.00 30 1006.2
20260504171636 70 224 7.0 17.0 0.00 0.00 0.00 32 1006.2
20260504171428 70 226 7.0 17.0 0.00 0.00 0.00 30 1006.2
20260504171219 70 234 7.0 17.0 0.00 0.00 0.00 31 1006.3
20260504171014 70 226 7.0 17.0 0.00 0.00 0.00 31 1006.2
20260504170807 70 251 7.0 17.0 0.00 0.00 0.00 32 1006.3
20260504170557 70 235 6.0 17.0 0.00 0.00 0.00 31 1006.4
20260504170353 70 246 6.0 17.0 0.00 0.00 0.00 32 1006.4
20260504160348 69 255 5.0 17.0 0.00 0.00 0.00 31 1006.5
20260504160145 69 217 5.0 15.0 0.00 0.00 0.00 32 1006.7
20260504151113 67 227 4.0 12.0 0.00 0.00 0.00 39 1007.4
20260504150755 66 227 5.0 12.0 0.00 0.00 0.00 37 1007.3
20260504150545 66 230 5.0 12.0 0.00 0.00 0.00 37 1007.3
20260504150335 66 224 4.0 12.0 0.00 0.00 0.00 37 1007.4
20260504141222 63 213 3.0 9.0 0.00 0.00 0.00 42 1008.2
20260504141014 63 254 3.0 10.0 0.00 0.00 0.00 42 1008.2
20260504140813 63 252 3.0 10.0 0.00 0.02 0.00 41 1008.2
20260504140614 63 248 4.0 10.0 0.00 0.02 0.00 41 1008.2
20260504140258 63 201 3.0 10.0 0.00 0.02 0.00 41 1008.3
20260504130720 58 240 2.0 9.0 0.00 0.05 0.00 48 1009.0
20260504130515 58 225 3.0 9.0 0.00 0.05 0.00 49 1009.0
20260504130200 58 253 3.0 9.0 0.00 0.05 0.00 47 1009.0
20260504120147 51 232 1.0 5.0 0.00 0.05 0.00 57 1009.7
20260504110533 48 229 2.0 5.0 0.00 0.05 0.00 60 1009.8
20260504110323 48 215 2.0 5.0 0.00 0.05 0.00 60 1009.8
20260504110118 48 224 2.0 5.0 0.00 0.05 0.00 60 1009.8
20260504100604 46 222 2.0 3.0 0.00 0.05 0.00 61 1009.9
20260504100405 46 222 2.0 3.0 0.00 0.05 0.00 61 1009.9
20260504081802 45 249 1.0 3.0 0.00 0.05 0.00 60 1009.7
20260504081555 45 249 1.0 3.0 0.00 0.05 0.00 60 1009.6
20260504081352 45 249 1.0 3.0 0.00 0.05 0.00 61 1009.7
20260504081152 45 249 1.0 3.0 0.00 0.05 0.00 61 1009.7
20260504080949 45 229 1.0 2.0 0.00 0.05 0.00 60 1009.7
20260504080747 45 234 1.0 2.0 0.00 0.05 0.00 61 1009.7
20260504080544 45 234 1.0 2.0 0.00 0.05 0.00 60 1009.6
20260504080343 45 234 1.0 2.0 0.00 0.05 0.00 60 1009.6
20260504080134 45 234 1.0 2.0 0.00 0.05 0.00 61 1009.6
20260504070335 43 215 1.0 2.0 0.00 0.05 0.00 62 1009.5
20260504070129 43 215 1.0 2.0 0.00 0.05 0.00 62 1009.4
20260504060133 42 299 1.0 2.0 0.00 0.05 0.00 64 1009.6
20260504050729 41 299 1.0 2.0 0.00 0.06 0.00 65 1009.4
20260504050523 41 299 1.0 2.0 0.00 0.06 0.00 65 1009.5
20260504050322 41 299 1.0 2.0 0.00 0.06 0.00 65 1009.5
20260504050113 41 299 1.0 2.0 0.00 0.06 0.00 65 1009.5
20260504045910 41 299 1.0 2.0 0.00 0.06 0.00 65 1009.5
20260504045703 41 299 1.0 2.0 0.00 0.06 0.00 66 1009.5
20260504045459 41 299 1.0 2.0 0.00 0.06 0.00 65 1009.5
20260504045256 41 299 1.0 2.0 0.00 0.06 0.00 66 1009.4
20260504045046 41 299 1.0 2.0 0.00 0.06 0.00 66 1009.4
20260504044838 41 299 1.0 2.0 0.00 0.06 0.00 66 1009.4
20260504044516 40 299 0.0 2.0 0.00 0.06 0.00 66 1009.4
20260504044310 40 299 0.0 2.0 0.00 0.06 0.00 67 1009.4
20260504044111 40 299 0.0 2.0 0.00 0.06 0.00 67 1009.4
20260504043904 40 299 0.0 0.0 0.00 0.06 0.00 67 1009.4
20260504043702 40 299 0.0 0.0 0.00 0.06 0.00 68 1009.4
20260504043348 40 299 0.0 0.0 0.00 0.06 0.00 67 1009.4
20260504043143 40 299 0.0 0.0 0.00 0.06 0.00 67 1009.4
20260504042936 40 299 0.0 0.0 0.00 0.06 0.00 67 1009.4
20260504042622 41 299 0.0 0.0 0.00 0.06 0.00 66 1009.4
20260504042420 41 299 0.0 0.0 0.00 0.06 0.00 66 1009.4
20260504042220 41 299 0.0 0.0 0.00 0.06 0.00 67 1009.4
20260504042019 41 299 0.0 0.0 0.00 0.06 0.00 67 1009.4
20260504041810 41 299 0.0 0.0 0.00 0.06 0.00 67 1009.4
20260504041611 41 299 0.0 0.0 0.00 0.06 0.00 66 1009.4
20260504041407 41 299 0.0 0.0 0.00 0.06 0.00 65 1009.3
20260504041202 41 299 0.0 0.0 0.00 0.06 0.00 65 1009.3
20260504040954 41 299 0.0 0.0 0.00 0.06 0.00 65 1009.3
20260504040745 41 299 0.0 0.0 0.00 0.06 0.00 65 1009.3
20260504040542 41 299 0.0 0.0 0.00 0.06 0.00 65 1009.3
20260504040340 41 299 0.0 1.0 0.00 0.06 0.00 65 1009.3
20260504040134 41 299 0.0 1.0 0.00 0.06 0.00 66 1009.3
20260504035816 41 299 0.0 1.0 0.00 0.06 0.06 66 1009.2
20260504035610 41 299 0.0 1.0 0.00 0.06 0.06 66 1009.2
20260504035407 41 299 0.0 2.0 0.00 0.06 0.06 66 1009.2
20260504035200 41 299 0.0 2.0 0.00 0.06 0.06 66 1009.2
20260504034957 41 299 0.0 2.0 0.00 0.06 0.06 66 1009.2
20260504034749 41 299 0.0 2.0 0.00 0.06 0.06 67 1009.2
20260504034547 41 299 1.0 2.0 0.00 0.06 0.06 67 1009.1
20260504034337 41 299 1.0 2.0 0.00 0.06 0.06 67 1009.1
20260504034131 41 299 1.0 2.0 0.00 0.06 0.06 67 1009.1
20260504033929 41 299 1.0 2.0 0.00 0.06 0.06 67 1009.1
20260504033729 41 299 1.0 2.0 0.00 0.06 0.06 67 1009.2
20260504033526 41 299 1.0 1.0 0.00 0.06 0.06 67 1009.2
20260504033319 41 299 1.0 1.0 0.00 0.06 0.06 67 1009.2
20260504033110 41 299 1.0 2.0 0.00 0.06 0.06 67 1009.2
20260504032910 41 299 1.0 2.0 0.00 0.06 0.06 66 1009.2
20260504032706 41 299 1.0 2.0 0.00 0.06 0.06 67 1009.2
20260504032502 41 299 1.0 2.0 0.00 0.06 0.06 65 1009.2
20260504032143 42 299 1.0 2.0 0.00 0.06 0.06 65 1009.2
20260504031937 42 299 1.0 2.0 0.00 0.06 0.06 65 1009.2
20260504031737 42 299 0.0 2.0 0.00 0.06 0.06 65 1009.2
20260504031536 42 299 0.0 2.0 0.00 0.06 0.06 65 1009.2
20260504031334 42 299 0.0 2.0 0.00 0.06 0.06 65 1009.1
20260504031134 42 299 0.0 0.0 0.00 0.06 0.06 64 1009.1
20260504030816 42 299 0.0 0.0 0.00 0.06 0.06 65 1009.1
20260504030610 42 299 0.0 0.0 0.00 0.06 0.06 65 1009.1
20260504030407 42 299 0.0 0.0 0.00 0.06 0.06 65 1009.1
20260504030157 42 299 0.0 0.0 0.00 0.06 0.06 65 1009.1
20260504025957 41 299 0.0 0.0 0.00 0.06 0.06 64 1009.1
20260504025758 41 299 0.0 0.0 0.00 0.06 0.06 65 1009.2
20260504025548 41 299 0.0 0.0 0.00 0.06 0.06 65 1009.1
20260504025340 41 299 0.0 0.0 0.00 0.06 0.06 65 1009.1
20260504025140 42 299 0.0 0.0 0.00 0.06 0.06 65 1009.1
20260504024932 42 299 0.0 0.0 0.00 0.06 0.06 65 1009.1
20260504024721 42 299 0.0 0.0 0.00 0.06 0.06 64 1009.0
20260504024518 42 299 0.0 0.0 0.00 0.06 0.06 64 1009.1
20260504024202 42 299 0.0 0.0 0.00 0.06 0.06 63 1009.1
20260504024001 42 299 0.0 0.0 0.00 0.06 0.06 63 1009.1
20260504023758 42 299 0.0 0.0 0.00 0.06 0.06 62 1009.1
20260504023441 42 299 0.0 0.0 0.00 0.06 0.06 62 1009.1
20260504023235 43 299 0.0 0.0 0.00 0.06 0.06 61 1009.1
20260504022918 43 299 0.0 0.0 0.00 0.06 0.06 61 1009.0
20260504022557 43 299 0.0 0.0 0.00 0.06 0.06 61 1009.0
20260504022357 43 299 0.0 0.0 0.00 0.06 0.06 61 1009.0
20260504022042 43 299 0.0 0.0 0.00 0.06 0.06 61 1009.0
20260504021718 43 299 0.0 0.0 0.00 0.06 0.06 60 1009.0
20260504021515 44 299 0.0 0.0 0.00 0.06 0.06 59 1009.0
20260504021310 44 299 0.0 0.0 0.00 0.06 0.06 60 1009.0
20260504021100 44 299 0.0 0.0 0.00 0.06 0.06 59 1008.9
20260504020852 44 299 0.0 0.0 0.00 0.06 0.06 57 1008.9
20260504020532 44 299 0.0 0.0 0.00 0.06 0.06 57 1008.9
20260504020328 44 299 0.0 0.0 0.00 0.06 0.06 57 1008.9
20260504020118 44 299 0.0 0.0 0.00 0.06 0.06 57 1008.9
20260504015909 44 299 0.0 0.0 0.00 0.06 0.06 57 1008.8
20260504015701 44 299 0.0 0.0 0.00 0.06 0.06 56 1008.8
20260504015454 45 299 0.0 0.0 0.00 0.06 0.06 56 1008.8
20260504015251 45 299 0.0 0.0 0.00 0.06 0.06 56 1008.8
20260504015045 45 299 0.0 0.0 0.00 0.06 0.06 57 1008.8
20260504014844 45 299 0.0 0.0 0.00 0.06 0.06 56 1008.8
20260504014640 45 299 0.0 0.0 0.00 0.06 0.06 56 1008.8
20260504014434 45 299 0.0 0.0 0.00 0.06 0.06 57 1008.8
20260504014235 45 299 0.0 0.0 0.00 0.06 0.06 56 1008.8
20260504014034 45 299 0.0 0.0 0.00 0.06 0.06 55 1008.9
20260504013831 45 299 0.0 0.0 0.00 0.06 0.06 55 1008.9
20260504013630 45 299 0.0 0.0 0.00 0.06 0.06 55 1008.9
20260504013425 45 299 0.0 0.0 0.00 0.06 0.06 55 1008.8
20260504013223 45 299 0.0 0.0 0.00 0.06 0.06 55 1008.8
20260504013019 45 299 0.0 0.0 0.00 0.06 0.06 55 1008.8
20260504012816 45 299 0.0 0.0 0.00 0.06 0.06 55 1008.7
20260504012610 46 299 0.0 0.0 0.00 0.06 0.06 54 1008.7
20260504012244 46 299 0.0 0.0 0.00 0.06 0.06 54 1008.7